Overview Statistics Trail Chart Weather Telemetry Raw packets
 

This is the latest recevied weather packets stored in our database for station/object WX4SGA. If no packets are shown the sender has not sent any weather packets the latest 10 day(s).

<< 1 2 3 4 5 >>
Time Temp. Humidity Pressure Rain* Wind** Luminosity Snow
1788620784 30° C 78% 1015.6 hPa 0 mm - 637 W/m² -
1788620482 29.44° C 80% 1015.6 hPa 0 mm - 600 W/m² -
1788620181 30° C 78% 1015.6 hPa 0 mm - 567 W/m² -
1788619880 29.44° C 79% 1015.6 hPa 0 mm - 558 W/m² -
1788619580 28.89° C 79% 1015.9 hPa 0 mm - 575 W/m² -
1788619279 28.89° C 81% 1015.9 hPa 0 mm - 269 W/m² -
1788618995 28.33° C 83% 1015.9 hPa 0 mm - 550 W/m² -
1788618669 28.89° C 80% 1015.9 hPa 0 mm - 267 W/m² -
1788618368 28.89° C 80% 1015.9 hPa 0 mm - 384 W/m² -
1788618068 28.89° C 83% 1015.9 hPa 0 mm - 485 W/m² -
1788617767 28.33° C 82% 1015.6 hPa 0 mm - 441 W/m² -
1788617464 27.78° C 85% 1015.6 hPa 0 mm - 422 W/m² -
1788617159 27.78° C 85% 1015.6 hPa 0 mm - 405 W/m² -
1788616858 27.22° C 85% 1015.9 hPa 0 mm - 392 W/m² -
1788616554 27.22° C 87% 1015.9 hPa 0 mm - 335 W/m² -
1788616253 27.22° C 87% 1015.9 hPa 0 mm - 362 W/m² -
1788615948 26.11° C 89% 1015.6 hPa 0 mm - 379 W/m² -
1788615668 26.67° C 90% 1015.9 hPa 0 mm - 171 W/m² -
1788615343 26.67° C 89% 1015.9 hPa 0 mm - 346 W/m² -
1788615036 25.56° C 91% 1015.6 hPa 0 mm - 113 W/m² -
1788614731 25.56° C 93% 1015.9 hPa 0 mm - 212 W/m² -
1788614426 25.56° C 94% 1015.9 hPa 0 mm - 145 W/m² -
1788614121 25° C 94% 1015.9 hPa 0 mm - 171 W/m² -
1788613817 25° C 96% 1015.6 hPa 0 mm - 113 W/m² -
1788613516 25° C 97% 1015.6 hPa 0 mm - 124 W/m² -

* Rain latest hour (hover to see other rain measurements)
** Current wind speed in m/s (hover to see current wind gust speed)